Temp
-16 -16 -16 -16 -16 -16 -17 -17 -17 -17 -18 -18 -18 -19 -19 -19 -20 -21 -22 -22 -23 -23 -22 -21 -21 -21 -21 -19 -18 -17 -16 -15
-16 -16 -16 -16 -16 -17 -17 -17 -17 -17 -18 -18 -18 -18 -19 -20 -21 -22 -23 -24 -24 -23 -23 -22 -22 -22 -23 -22 -20 -19 -17 -15
-16 -16 -16 -17 -17 -17 -17 -17 -17 -18 -18 -18 -18 -19 -20 -21 -22 -24 -25 -25 -25 -24 -24 -23 -23 -23 -24 -24 -23 -22 -18 -16
-16 -16 -17 -17 -17 -17 -17 -17 -18 -18 -18 -18 -19 -20 -21 -22 -23 -25 -25 -27 -28 -28 -27 -26 -26 -25 -24 -24 -23 -23 -20 -17
-16 -16 -17 -17 -17 -17 -17 -17 -18 -18 -18 -18 -19 -21 -22 -23 -24 -25 -27 -29 -29 -29 -28 -27 -27 -26 -25 -24 -24 -23 -22 -19
-16 -17 -17 -17 -17 -17 -17 -17 -18 -18 -18 -19 -20 -21 -22 -24 -25 -26 -28 -29 -29 -29 -28 -27 -27 -26 -25 -24 -23 -23 -22 -21
-17 -17 -17 -17 -17 -17 -17 -17 -18 -18 -18 -19 -21 -22 -23 -24 -25 -26 -28 -29 -29 -28 -28 -27 -26 -26 -25 -24 -24 -23 -23 -21
-17 -17 -17 -17 -17 -17 -17 -17 -18 -18 -19 -20 -21 -22 -23 -25 -26 -26 -28 -29 -28 -28 -28 -27 -26 -26 -25 -24 -24 -23 -23 -22
-17 -17 -17 -17 -17 -17 -17 -18 -18 -18 -19 -20 -22 -23 -24 -25 -26 -27 -27 -28 -28 -28 -27 -27 -26 -26 -25 -24 -24 -23 -23 -22
-17 -17 -17 -17 -17 -17 -18 -18 -18 -19 -19 -21 -22 -23 -24 -25 -26 -27 -27 -28 -28 -28 -27 -27 -26 -26 -25 -24 -24 -23 -22 -22
-17 -17 -17 -17 -17 -17 -17 -17 -18 -19 -20 -21 -22 -23 -24 -25 -26 -27 -27 -28 -28 -28 -27 -27 -26 -26 -25 -24 -24 -23 -22 -22
-17 -17 -17 -17 -17 -17 -17 -18 -18 -19 -20 -22 -22 -23 -24 -25 -26 -27 -28 -28 -28 -28 -27 -27 -26 -26 -25 -24 -23 -23 -22 -22
-17 -17 -17 -17 -17 -17 -17 -18 -18 -19 -21 -22 -22 -23 -24 -25 -26 -27 -28 -28 -29 -28 -27 -27 -26 -26 -25 -24 -24 -23 -23 -22
-17 -17 -17 -17 -17 -17 -17 -18 -19 -20 -21 -22 -23 -23 -24 -25 -26 -27 -28 -29 -29 -28 -28 -27 -27 -26 -25 -24 -24 -23 -23 -22
-17 -17 -17 -17 -17 -17 -17 -18 -19 -20 -21 -22 -22 -23 -24 -24 -26 -27 -28 -29 -29 -29 -28 -27 -27 -26 -25 -25 -24 -23 -23 -22
-17 -16 -17 -17 -17 -17 -18 -18 -19 -20 -21 -22 -22 -23 -24 -24 -25 -27 -28 -29 -29 -29 -28 -27 -27 -26 -26 -25 -24 -24 -23 -22
-16 -17 -17 -17 -17 -17 -18 -18 -19 -20 -20 -21 -22 -23 -24 -24 -25 -26 -28 -28 -29 -30 -29 -28 -27 -27 -26 -25 -25 -24 -23 -22
-16 -17 -17 -16 -17 -17 -18 -18 -19 -20 -20 -21 -22 -23 -23 -24 -24 -26 -27 -28 -29 -30 -29 -28 -27 -27 -26 -26 -25 -25 -24 -22
-17 -17 -16 -16 -17 -17 -18 -18 -19 -20 -20 -21 -22 -23 -23 -23 -24 -25 -27 -28 -29 -30 -30 -29 -28 -27 -26 -26 -26 -25 -25 -23
Height
5784 5779 5771 5764 5757 5750 5742 5735 5726 5716 5705 5692 5679 5666 5654 5642 5629 5615 5602 5589 5581 5576 5575 5575 5576 5577 5583 5588 5598 5608 5623 5637
5781 5774 5766 5759 5752 5744 5736 5728 5720 5710 5698 5685 5672 5658 5643 5626 5611 5594 5579 5566 5557 5552 5553 5555 5557 5560 5566 5574 5580 5588 5605 5620
5775 5768 5761 5755 5747 5739 5730 5722 5713 5701 5689 5675 5661 5645 5629 5612 5594 5576 5558 5539 5530 5528 5530 5535 5540 5544 5553 5562 5568 5575 5589 5603
5770 5764 5757 5750 5742 5733 5726 5717 5706 5694 5681 5668 5652 5636 5620 5604 5584 5563 5541 5525 5518 5514 5514 5520 5527 5532 5541 5552 5559 5564 5574 5588
5766 5759 5753 5745 5737 5729 5721 5711 5701 5688 5675 5659 5643 5626 5609 5590 5571 5550 5531 5520 5514 5510 5509 5513 5520 5525 5533 5543 5551 5557 5563 5576
5760 5755 5749 5742 5734 5725 5717 5707 5695 5682 5668 5652 5635 5618 5600 5583 5565 5547 5528 5520 5513 5509 5507 5510 5516 5521 5526 5535 5544 5551 5557 5566
5756 5752 5745 5738 5730 5722 5712 5702 5690 5677 5661 5646 5629 5612 5596 5580 5562 5544 5528 5520 5514 5509 5507 5509 5513 5518 5522 5529 5537 5545 5551 5559
5753 5748 5741 5734 5728 5719 5709 5699 5686 5673 5656 5640 5624 5608 5591 5574 5558 5542 5527 5520 5514 5510 5507 5508 5511 5514 5519 5525 5531 5539 5546 5551
5751 5746 5739 5733 5725 5716 5707 5695 5682 5668 5652 5636 5620 5605 5588 5571 5555 5540 5526 5518 5513 5509 5507 5506 5508 5511 5516 5521 5527 5533 5541 5546
5748 5743 5737 5730 5722 5713 5704 5692 5679 5664 5648 5632 5618 5602 5587 5570 5553 5539 5525 5516 5512 5507 5505 5504 5506 5508 5512 5517 5522 5528 5535 5541
5746 5741 5736 5727 5719 5711 5701 5689 5675 5660 5644 5630 5616 5600 5584 5568 5552 5538 5525 5514 5510 5506 5503 5503 5503 5505 5509 5513 5518 5524 5530 5537
5744 5740 5732 5724 5717 5708 5698 5686 5671 5657 5642 5628 5613 5598 5583 5566 5551 5537 5523 5512 5507 5504 5502 5501 5501 5502 5505 5509 5513 5518 5525 5532
5743 5737 5730 5722 5715 5705 5695 5682 5669 5655 5641 5627 5611 5596 5581 5567 5552 5537 5522 5510 5504 5502 5500 5498 5498 5500 5502 5505 5509 5514 5519 5527
5740 5735 5727 5720 5713 5703 5692 5680 5667 5653 5640 5625 5611 5595 5581 5567 5552 5536 5520 5507 5501 5499 5498 5497 5496 5497 5498 5501 5505 5509 5515 5520
5738 5731 5725 5718 5710 5701 5690 5678 5665 5653 5639 5625 5610 5595 5581 5567 5551 5535 5520 5506 5499 5497 5496 5496 5495 5495 5495 5497 5501 5505 5510 5516
5735 5729 5724 5717 5708 5699 5689 5677 5664 5652 5639 5624 5610 5595 5581 5567 5551 5536 5520 5506 5499 5496 5494 5494 5494 5494 5494 5494 5497 5501 5506 5511
5732 5727 5722 5715 5706 5697 5687 5676 5664 5652 5639 5624 5610 5595 5582 5568 5553 5538 5522 5507 5499 5495 5494 5493 5493 5493 5493 5493 5494 5497 5501 5506
5730 5726 5720 5712 5704 5696 5686 5675 5664 5651 5639 5625 5611 5597 5584 5570 5556 5541 5525 5510 5500 5496 5494 5493 5492 5492 5492 5492 5492 5494 5497 5501
5728 5724 5718 5711 5703 5694 5685 5675 5664 5652 5640 5627 5613 5600 5586 5572 5559 5544 5530 5515 5504 5497 5495 5493 5492 5491 5492 5491 5491 5492 5494 5496
Wind_Speed
32 34 38 40 40 41 37 41 46 51 57 59 62 65 67 65 67 68 67 65 55 49 45 45 44 46 50 62 81 86 85 86
32 35 38 39 40 39 39 44 49 55 59 65 66 69 69 68 70 71 69 61 52 47 43 43 41 45 45 48 62 78 84 83
34 36 37 37 39 37 42 47 53 58 65 68 69 71 69 71 74 75 76 60 46 41 40 37 38 44 43 38 42 49 76 82
32 34 36 37 39 39 44 49 56 62 67 69 68 69 69 70 75 75 70 46 35 28 25 29 34 39 40 36 34 39 52 77
31 34 36 39 38 41 46 53 58 64 67 69 70 70 71 75 75 79 58 39 33 24 18 20 26 33 35 35 33 33 37 55
31 34 36 38 39 43 48 54 60 65 68 70 70 71 72 75 71 77 48 36 33 24 16 15 22 29 32 32 31 33 35 43
32 35 37 39 42 44 50 56 61 65 68 70 70 70 71 73 70 72 43 34 30 24 15 13 17 26 31 31 30 30 32 36
34 35 38 40 42 45 52 57 62 65 67 69 70 70 71 72 68 69 43 31 27 23 17 12 15 20 25 29 28 30 32 29
34 35 38 40 41 46 52 57 63 65 67 68 69 69 69 70 68 67 51 30 27 21 16 12 14 17 23 28 28 28 32 29
34 35 38 39 42 47 52 59 62 64 67 68 68 68 68 69 67 64 58 31 27 21 16 12 13 15 19 26 27 29 30 31
33 34 37 38 42 47 53 59 62 63 66 67 66 67 67 68 67 63 61 32 24 21 16 12 11 15 18 23 25 29 30 30
32 34 35 38 43 47 54 58 62 62 64 65 66 66 67 68 67 64 63 39 21 19 15 12 10 13 17 20 26 29 31 30
32 33 34 38 42 47 53 57 60 61 62 64 65 66 67 67 66 65 64 42 20 16 14 12 10 10 15 20 25 28 32 33
31 31 34 38 42 48 53 57 59 60 61 63 64 66 66 67 67 67 65 44 22 16 13 12 11 9 11 16 22 27 30 34
30 30 34 37 42 49 51 56 57 58 60 61 63 64 66 67 67 67 67 45 24 15 12 10 10 10 9 11 17 23 30 33
29 30 33 37 43 48 50 54 56 57 58 60 62 63 65 66 67 68 69 47 27 14 13 9 7 9 9 8 12 17 24 31
27 30 33 37 44 47 49 52 54 56 57 59 60 62 63 65 66 68 71 51 30 16 14 12 7 7 9 8 8 12 18 28
26 29 32 38 44 46 47 50 51 54 56 58 60 60 61 64 66 68 70 57 33 18 14 13 10 6 7 7 7 8 13 23
26 28 33 38 43 44 45 48 50 53 56 57 59 59 60 63 64 67 70 65 38 20 12 11 11 9 6 4 5 5 8 13
Wind_Direction
324 328 333 339 340 339 337 340 345 344 343 341 339 335 332 327 322 317 310 307 297 284 275 266 266 259 242 235 230 229 229 230
324 330 337 340 340 339 342 345 345 344 344 343 338 333 332 329 325 320 320 311 301 284 276 268 266 254 242 235 234 233 226 228
327 334 340 340 340 339 344 346 345 346 345 340 338 336 334 332 330 329 327 319 303 283 269 257 251 242 236 233 236 236 227 225
330 339 342 342 341 342 347 345 347 346 343 341 339 337 336 334 333 335 336 328 320 303 276 243 236 234 230 229 231 232 230 225
336 342 343 344 341 344 347 347 346 345 343 343 340 340 340 339 341 343 340 334 334 321 292 240 232 226 227 225 228 222 222 222
341 342 343 343 341 346 348 347 346 345 344 344 343 343 343 343 345 347 342 338 334 329 303 250 227 224 226 224 226 221 220 219
342 342 342 342 344 347 347 346 345 346 345 346 345 345 345 345 348 351 343 340 336 331 312 262 232 222 225 223 224 221 222 214
343 342 340 343 344 347 348 346 346 348 346 347 347 347 347 348 351 353 346 339 339 329 318 272 244 236 227 220 220 216 221 220
343 340 340 342 345 348 346 345 348 350 348 349 348 348 348 349 352 355 353 341 340 335 320 284 251 241 227 222 221 211 216 217
342 340 341 342 346 347 345 347 350 351 349 350 349 349 350 351 354 355 356 341 341 336 325 298 260 247 232 222 224 211 213 216
342 339 342 344 347 345 347 350 353 353 351 350 350 351 352 353 354 355 357 344 336 336 329 311 277 251 235 229 224 217 209 215
341 341 344 346 347 346 349 353 355 354 353 350 351 352 354 354 354 356 357 351 335 333 328 319 296 267 242 232 227 223 214 215
342 344 345 347 347 348 351 355 357 356 353 351 352 353 355 355 355 357 357 354 339 334 327 324 311 280 252 240 228 226 224 216
344 345 347 347 347 350 354 356 359 357 353 353 353 354 356 356 356 358 359 356 345 335 328 325 326 305 266 247 235 229 224 217
345 349 347 345 348 351 356 358 360 358 355 354 355 356 356 357 358 360 1 358 351 338 334 323 323 320 288 254 243 235 228 224
348 348 344 346 350 353 358 359 0 359 356 355 356 357 357 358 359 1 2 2 358 347 344 336 325 324 314 267 251 244 235 224
347 344 341 348 351 357 359 1 1 0 359 357 358 358 358 0 1 2 4 5 3 354 351 349 348 332 323 295 267 252 241 229
344 338 343 350 355 358 1 2 2 1 0 359 360 359 359 2 3 3 6 8 6 1 353 352 354 357 337 306 280 265 250 233
337 336 348 353 358 360 2 2 2 2 2 1 0 360 1 3 5 5 7 10 10 3 357 354 350 352 0 327 297 266 258 246